Location: Four Corners
(38.2757°N, 122.4608°W)
Time: 02:53:14
(UTC+00:00)

Cosmos 1655 Rocket - Pass Details

Date: 08 December 2019
Orbit: 970 x 1006 km, 83.0° (Epoch: 19 January)

Event Time Altitude Azimuth Distance (km) Brightness Sun altitude
Rises 03:26:27 0° 190° (S) 3,707 7.2 -30.1°
Reaches altitude 10° 03:28:59 10° 192° (SSW) 2,757 6.5 -30.6°
Maximum altitude 03:35:19 75° 277° (W) 1,028 4.1 -31.8°
Enters shadow 03:35:36 73° 302° (WNW) 1,034 4.1 -31.9°
